This is the latest recevied weather packets stored in our database for station/object KQ4PPF. If no packets are shown the sender has not sent any weather packets the latest 10 day(s).
| Time | Temp. | Humidity | Pressure | Rain* | Wind** | Luminosity | Snow |
|---|---|---|---|---|---|---|---|
| 1777772385 | 13.89° C | 55% | 1016.4 hPa | 0 mm | - | 0 W/m² | - |
| 1777772082 | 13.89° C | 55% | 1016.3 hPa | 0 mm | - | 0 W/m² | - |
| 1777771779 | 14.44° C | 55% | 1016.3 hPa | 0 mm | - | 0 W/m² | - |
| 1777771477 | 14.44° C | 53% | 1016.2 hPa | 0 mm | - | 0 W/m² | - |
| 1777771172 | 14.44° C | 52% | 1016.1 hPa | 0 mm | - | 0 W/m² | - |
| 1777770870 | 14.44° C | 51% | 1016.1 hPa | 0 mm | - | 0 W/m² | - |
| 1777770567 | 14.44° C | 52% | 1015.7 hPa | 0 mm | - | 0 W/m² | - |
| 1777770264 | 14.44° C | 50% | 1015.9 hPa | 0 mm | - | 0 W/m² | - |
| 1777769961 | 13.89° C | 51% | 1015.8 hPa | 0 mm | - | 0 W/m² | - |
| 1777769658 | 13.89° C | 57% | 1015.4 hPa | 0 mm | - | 0 W/m² | - |
| 1777769354 | 13.89° C | 54% | 1015.3 hPa | 0 mm | - | 0 W/m² | - |
| 1777769051 | 13.89° C | 53% | 1015 hPa | 0 mm | - | 0 W/m² | - |
| 1777768749 | 13.89° C | 54% | 1015.2 hPa | 0 mm | - | 0 W/m² | - |
| 1777768445 | 13.89° C | 52% | 1015.1 hPa | 0 mm | - | 0 W/m² | - |
| 1777768143 | 13.89° C | 54% | 1015.1 hPa | 0 mm | - | 0 W/m² | - |
| 1777767840 | 13.89° C | 52% | 1015 hPa | 0 mm | - | 0 W/m² | - |
| 1777767536 | 13.89° C | 53% | 1015.2 hPa | 0 mm | - | 1 W/m² | - |
| 1777767233 | 14.44° C | 51% | 1014.9 hPa | 0 mm | - | 3 W/m² | - |
| 1777766930 | 14.44° C | 47% | 1014.7 hPa | 0 mm | - | 5 W/m² | - |
| 1777766627 | 15° C | 48% | 1014.5 hPa | 0 mm | - | 6 W/m² | - |
| 1777766324 | 15° C | 47% | 1014.6 hPa | 0 mm | - | 6 W/m² | - |
| 1777766021 | 15.56° C | 47% | 1014.4 hPa | 0 mm | - | 8 W/m² | - |
| 1777765718 | 15.56° C | 42% | 1014.2 hPa | 0 mm | - | 9 W/m² | - |
| 1777765415 | 15.56° C | 43% | 1013.9 hPa | 0 mm | - | 11 W/m² | - |
| 1777765112 | 15.56° C | 44% | 1014.1 hPa | 0 mm | - | 12 W/m² | - |
* Rain latest hour (hover to see other rain measurements)
** Current wind speed in m/s (hover to see current wind gust speed)